OneWeb SL0113

operational
NORAD ID: 48050 Int'l Des: 2021-025 Owner: ONEWEBN Country: UK Constellation: oneweb
LEOCIRCULARPOLARONEWEB_TYPE

关于 OneWeb SL0113

正在加载描述...

实时位置

正在加载3D地球...

即将过境

高度历史

Altitude vs Time

uPlot chart will show altitude changes over time

两行轨道根数

1 48050U 21025J 26035.13288583 .00000017 00000-0 11733-4 0 9998
2 48050 87.9030 346.5994 0001736 73.1327 286.9993 13.13973705236136
Epoch: Feb 4, 2026 • Age: 6 hours

当前状态

高度 1209.8 km
速度 7.25 km/s
星下点 23.24°N, 81.08°E
发射日期 Mar 25, 2021
运行时间 4.8 years
类型 internet

技术详情

分类 Payload
质量 148.00 kg
干质量 140.00 kg
总质量 148.00 kg
长度 1.30 m
直径 1.00 m
跨度 5.00 m
形状 Trapezoid+2 pan
制造商 ONEWUS
平台类型 ARROW
阶段状态 In Orbit
所有者/国家 ONEWEBN/UK

大型星座

Loading constellations...